Location: Knowlton
(51.2333°N, 1.2667°E)
Time: 04:14:12
(UTC+00:00)

USA 215 - Pass Details

Date: 18 April 2021
Orbit: 1101 x 1107 km, 123.0° (Epoch: 05 May)

Event Time Altitude Azimuth Distance (km) Brightness Sun altitude
Exits shadow 20:45:39 22° 136° (SE) 2,201 4.2 -15.5°
Maximum altitude 20:50:06 69° 215° (SW) 1,172 3.4 -16.0°
Drops below altitude 10° 20:56:38 10° 299° (WNW) 2,965 6.7 -16.8°
Sets 20:59:09 0° 302° (WNW) 3,926 7.7 -17.0°
